SL-14 R/B, 24731

Orbit data source: Space-Track

SL-14 R/B, 24731 is space debris in LEO originally from a launch on Fri, 14 Feb 1997 UTC launched from the Plesetsk Missile And Space Complex (PKMTR). Debris objects in space refer to the collection of defunct objects orbiting the Earth. Examples of debris include non-operational satellites, rocket bodies, and fragments generated from explosions, collisions, or faulty payload assembly.

Loading next visibility...
Identifier
24731, 1997-006G
Orbit
LEO
Country
Flag of CISCIS
Related business
Manufacturer
Yuzhnoe
Mission
Spacecraft
Bus & Motor
S5M, Unknown motor
Mass
1,600 kg wet, 1,600 kg dry
Launch date (UTC)
1997-02-14 (29 years ago)
Launch vehicle
Unknown
Launch site
Plesetsk Missile And Space Complex (PKMTR)
Object type
Payload
Rocket body
Debris
Shape & HBR
Cyl, 1.4 m
Radar Cross Section
7.351 m², Large (>1 m²)

Expand to show TLE details & history
Last TLE update: 10 hours ago

TLE from 10 hours ago
0 SL-14 R/B
1 24731U 97006G   26038.16464760  .00000001  00000-0 -57413-4 0  9998
2 24731  82.5964  61.4103 0040478 317.2694 108.4113 12.55270878327727
Epoch: 2026-02-07T03:57Z
TLE epoch observation values (Epoch: 2026-02-07T03:57:05.552Z)
Latitude
65.14323°
Longitude
-118.94777°
Altitude
1,463.853 km
Speed
7.132 km/s
True Right ascension
05h 10m 28s
True Declination
65° 01' 25"
Sunlit
Object was in daylight at epoch
Visualization orbit readout
Latitude
Unknown
Longitude
Unknown
Altitude
Unknown
Speed
Unknown
Apparent Right ascension
Unknown
Apparent Declination
Unknown
Sunlit
N/A
Visualization observer readout
Local Sidereal Time
15:40:59
Azimuth
Unknown
Elevation
Unknown
Doppler factor
Unknown
Orbital elements
Apogee altitude
1,471.501 km
Perigee altitude
1,408.21 km
Semi-major axis
7,817.992 km
Eccentricity
0.00405
Inclination
82.5964°
RAAN
61.4103°
Arg. of periapsis
317.2694°
True anomaly
108.85069°
Mean anomaly
108.4113°
Eccentric anomaly
108.63107°
Mean motion
3.13979 °/min
Orbital period
114.66 mins
BSTAR
-0.000057413
Loading maneuver chart data...
Computing Atmospheric mass density...
Loading historical data...
Loading historical data...
Loading historical data...
Loading historical data...
Loading historical data...
Loading historical data...
Loading historical data...

Documentation

Showing up to 5 results
|